Wind_Speed
6 6 4 3 3 2 2 3 2 2 2 0 3 2 5 5 2 4 4 3 3 3 2 3 3 2 1 2 5 6 2 2 4 5 3 2 13 22 23 28 33 31 30 28 27 27 28 29 27 26 26 26 27 26 25 23 23 23 24 25 25 25 25 25 24 23 23 24 24 24 25 26 26 25 25 24 23 22 23 23 22 21 20 20 20 20 20 22 22 20 19 20 19 19 19 19 20
6 7 5 2 3 2 1 3 2 3 3 2 3 4 5 2 2 5 4 2 4 4 3 3 1 2 2 2 4 4 3 2 2 3 1 9 17 17 25 32 33 31 30 29 28 28 29 29 27 27 26 27 27 26 25 23 23 23 23 25 25 25 25 25 24 24 24 24 24 24 24 24 24 24 24 23 22 22 22 22 21 20 20 20 21 21 21 22 20 19 19 19 18 18 18 18 17
7 7 5 2 2 3 1 3 2 1 2 4 4 4 3 2 5 4 5 6 7 6 5 5 2 1 1 2 1 1 0 1 3 2 4 13 13 16 29 31 31 31 30 30 29 29 31 29 27 27 26 27 27 26 24 23 22 22 24 25 25 26 26 25 24 24 24 23 23 22 22 22 21 22 23 22 21 20 20 20 20 19 19 19 20 21 22 21 20 19 18 18 18 18 18 17 16
9 8 4 2 2 4 3 3 2 4 3 4 4 5 3 5 5 2 5 7 7 7 4 2 2 2 1 2 1 1 1 1 3 3 5 10 11 21 30 29 30 30 30 30 29 30 31 29 28 26 27 28 27 26 24 23 23 23 24 26 26 26 26 25 24 23 23 23 22 21 22 22 21 21 22 21 19 19 19 19 19 18 19 19 20 21 21 20 19 19 18 18 17 17 17 16 15
10 7 3 2 2 1 3 2 2 3 4 4 2 5 4 5 5 4 7 6 8 9 5 3 2 3 2 2 1 1 1 2 3 3 6 9 17 26 29 28 29 28 29 28 29 31 29 29 28 27 27 28 27 26 25 24 23 24 25 26 26 25 24 24 24 23 22 22 22 21 20 21 22 21 22 21 20 20 20 19 19 18 18 18 20 21 20 20 20 18 18 18 17 16 16 15 13
9 6 3 3 2 1 3 1 2 3 5 5 3 6 5 5 4 6 8 8 9 6 3 4 1 1 2 2 1 2 2 3 4 5 9 14 24 28 28 28 27 27 27 27 29 30 29 29 28 27 27 28 27 26 25 24 24 24 24 25 25 24 23 22 22 21 21 21 22 21 20 20 20 21 21 21 20 20 20 19 18 17 17 19 20 21 20 20 20 19 18 17 16 15 14 14 12
8 4 3 4 2 1 4 3 4 4 5 5 4 7 8 6 3 6 8 8 6 1 1 2 5 3 1 3 1 2 3 3 5 7 14 21 28 29 28 28 27 27 26 27 30 30 29 28 27 26 27 27 27 26 25 24 24 25 25 25 23 23 23 21 21 20 20 20 20 21 21 20 20 20 20 19 19 19 19 18 16 15 16 18 19 20 20 20 19 19 18 17 17 15 14 13 11
6 2 1 4 2 2 3 3 4 3 4 5 5 8 11 9 5 7 6 5 4 2 1 2 5 4 1 2 1 5 9 5 8 13 21 25 29 29 28 28 28 26 26 28 30 29 28 28 27 26 26 27 26 25 25 24 24 24 25 24 23 22 21 21 20 20 19 18 19 20 20 20 20 20 18 18 18 19 18 16 15 15 16 17 17 19 20 19 19 19 18 18 17 15 14 12 11
4 2 1 3 2 1 1 3 4 3 5 6 6 10 11 8 5 6 7 6 5 4 3 6 4 3 1 3 1 5 8 8 15 20 25 28 29 30 28 28 29 27 27 28 30 29 28 28 27 26 26 26 26 25 24 24 23 23 24 23 22 21 21 21 20 19 18 18 19 19 19 19 19 18 17 16 17 17 17 15 15 15 16 16 16 18 19 19 19 19 19 18 16 15 13 13 12
3 2 2 2 3 0 4 3 3 4 5 5 8 11 10 8 6 6 8 8 7 5 4 5 4 4 5 3 1 3 2 12 21 22 25 29 28 29 28 27 29 29 28 29 30 29 29 28 26 26 26 26 26 25 24 23 23 23 22 22 21 21 21 20 20 19 18 19 19 18 18 18 17 16 15 15 15 16 15 15 15 15 15 15 15 17 18 18 19 19 18 17 15 14 13 13 13
3 2 3 3 3 2 4 4 4 5 6 5 8 10 7 7 6 6 6 8 8 5 3 4 4 4 6 4 1 1 6 15 21 23 24 27 27 28 27 26 28 29 30 30 30 29 28 27 26 26 26 26 25 25 24 23 23 22 20 21 21 21 20 20 20 18 19 19 18 17 17 17 16 14 14 14 15 15 15 15 14 14 14 14 14 16 17 18 18 18 17 16 14 14 14 13 14
2 1 4 4 2 3 4 3 5 5 7 5 7 6 2 4 5 6 6 7 5 5 4 3 5 5 5 2 2 3 8 11 17 23 24 26 26 26 27 27 26 27 29 29 28 28 27 26 25 25 26 26 25 25 25 23 23 21 19 20 21 20 20 20 19 18 18 18 17 17 16 16 15 14 14 15 16 15 15 14 13 13 13 12 12 14 16 17 17 17 15 14 14 14 14 14 14
3 2 5 2 3 3 3 2 5 5 7 4 5 5 4 5 6 7 6 6 5 6 4 5 6 4 3 2 3 4 6 9 16 23 25 25 25 25 26 27 27 26 28 28 28 27 27 25 25 25 25 25 25 25 25 23 22 20 19 18 19 20 20 20 19 18 17 17 17 16 16 16 16 15 15 16 16 15 15 14 14 13 13 12 11 12 14 16 16 15 14 13 14 14 14 14 14
3 3 4 2 1 2 3 2 3 2 5 4 2 6 6 5 6 5 1 0 2 4 3 5 7 5 3 3 3 4 7 12 18 22 24 25 24 24 25 26 27 26 26 27 27 27 26 26 26 25 25 25 24 24 24 23 21 20 18 17 18 19 19 19 18 17 16 17 17 16 15 16 16 16 16 16 16 15 15 14 14 13 12 11 11 11 13 15 15 14 13 12 13 13 13 14 13
3 2 4 2 1 1 2 2 2 2 4 2 0 5 8 5 5 4 5 3 3 3 2 5 4 3 4 7 5 6 12 18 20 21 24 24 23 23 23 25 25 25 25 25 26 26 26 26 26 26 25 25 24 24 24 22 20 19 18 17 18 19 19 18 17 17 16 16 16 16 15 15 15 14 15 15 14 14 14 14 13 12 11 10 10 10 12 14 15 13 12 11 12 13 13 13 13
3 3 4 1 2 2 3 3 3 2 4 3 1 5 10 9 5 4 3 1 1 3 2 3 0 2 6 7 6 13 21 23 22 23 24 23 21 21 21 23 24 24 24 25 26 25 26 27 26 26 25 25 24 24 24 22 20 19 18 17 18 19 18 17 18 17 17 17 16 16 15 15 15 14 13 13 13 14 13 13 12 11 10 9 9 8 10 13 14 13 11 11 12 12 12 12 13
3 4 3 0 3 4 3 4 4 4 5 5 6 8 8 9 5 1 2 5 3 2 4 1 2 1 4 5 11 23 27 25 25 24 24 22 21 20 21 22 23 23 24 25 26 26 26 26 26 26 25 25 24 24 24 22 20 19 18 18 17 17 17 17 18 18 17 17 16 16 16 15 15 15 14 13 13 13 12 12 11 11 10 9 8 7 8 11 12 12 11 11 11 11 11 11 12
3 3 3 3 4 4 5 6 5 3 4 7 9 8 6 8 7 3 2 6 4 3 5 3 4 3 2 10 20 26 27 27 27 25 22 20 19 18 18 21 22 23 25 26 26 26 26 25 26 25 24 25 24 24 24 22 20 19 19 18 18 18 18 18 18 18 18 17 16 17 17 16 16 16 15 13 13 13 12 12 11 11 11 10 9 8 8 10 11 11 10 10 10 10 9 9 10
2 3 2 5 5 4 5 5 3 3 5 9 10 6 6 8 6 5 1 2 4 4 3 3 5 4 6 13 21 24 24 25 25 23 20 18 17 16 17 19 21 24 25 25 25 25 25 25 25 25 24 25 25 24 24 22 20 19 19 18 19 20 20 19 19 19 18 17 18 18 17 17 17 16 15 14 14 14 13 12 13 13 12 12 11 10 9 9 9 10 10 9 9 9 8 8 8
2 4 2 6 5 4 4 4 4 6 6 8 10 6 7 8 5 3 1 1 2 2 2 4 6 8 9 12 17 21 22 22 23 22 20 19 18 17 19 19 20 23 25 24 24 24 24 25 25 24 25 26 26 25 24 22 20 20 19 19 20 20 20 20 19 18 17 17 18 18 17 17 16 16 15 14 14 15 15 14 14 13 13 12 11 10 9 9 9 9 9 9 9 8 7 7 7
2 3 5 5 3 3 5 4 6 7 5 4 7 9 9 9 3 1 1 1 4 6 7 6 8 13 13 12 14 16 17 17 19 20 20 21 21 20 20 21 22 23 24 24 24 25 24 25 26 25 26 26 26 26 25 23 21 20 19 19 21 21 20 19 19 18 18 17 17 17 17 16 16 16 15 13 14 15 15 15 14 13 13 13 11 10 9 9 8 8 8 9 8 7 6 6 7
2 4 7 4 1 4 5 4 5 6 5 4 6 8 8 7 4 1 2 4 5 5 8 7 8 13 15 14 14 13 13 13 14 16 20 21 21 21 18 16 19 22 24 24 24 24 24 24 25 26 26 27 27 27 26 23 21 20 20 20 21 21 20 19 18 18 18 16 16 15 15 15 15 15 14 13 13 14 14 14 13 12 12 12 11 10 9 9 8 8 8 8 7 6 6 6 7
2 6 6 4 4 4 5 4 7 6 4 6 5 4 5 7 8 4 5 8 6 5 6 8 7 10 12 13 12 9 7 5 4 7 15 19 20 22 20 12 11 17 21 22 22 22 24 24 24 26 27 27 27 27 26 24 21 20 20 21 20 19 18 18 17 17 17 16 15 14 14 14 14 14 13 13 13 13 13 13 12 12 12 13 12 10 8 8 8 8 7 7 6 5 5 5 6
3 6 5 4 5 6 7 7 8 6 5 8 4 4 6 6 7 3 4 8 5 4 3 9 8 8 10 9 10 11 11 10 10 13 10 14 21 22 17 8 6 11 15 18 21 22 24 25 23 25 27 27 27 27 27 24 21 21 20 20 19 17 16 16 16 16 16 16 15 14 13 13 13 13 13 13 13 12 12 12 12 12 12 12 10 9 7 6 7 7 7 6 5 4 4 4 5
5 6 5 4 4 6 7 7 8 8 7 6 3 7 9 6 4 3 6 7 3 2 5 9 10 10 10 11 14 12 13 12 12 20 22 21 22 19 14 8 5 9 16 19 21 23 24 25 24 25 26 27 27 27 27 24 23 22 21 20 18 16 16 15 15 16 16 16 15 13 12 12 13 13 12 12 12 12 12 12 11 11 10 10 9 8 7 6 6 6 7 6 6 5 4 4 4
6 6 4 5 6 6 6 6 8 9 5 1 3 10 9 4 3 4 7 4 1 4 6 8 11 12 10 11 12 10 11 12 12 13 19 29 28 17 11 5 1 6 16 21 22 24 23 24 25 25 26 27 27 27 26 24 24 23 20 19 17 15 15 14 14 16 17 16 15 13 12 12 11 12 11 11 11 12 11 10 9 9 8 8 8 7 7 6 5 6 7 7 6 6 5 5 4
4 5 5 7 7 6 4 6 9 7 5 3 4 10 7 3 1 3 6 3 5 6 7 7 10 11 11 11 8 8 8 11 18 18 17 26 33 31 26 19 13 11 16 21 25 26 25 26 27 27 26 26 26 26 25 25 24 22 19 18 17 14 14 14 14 16 16 16 14 13 12 11 11 10 10 10 11 11 10 9 7 7 6 6 6 5 5 5 5 7 8 7 6 6 6 6 5
2 3 5 7 6 6 4 6 8 4 5 5 6 7 5 2 2 5 5 4 5 7 9 9 11 10 10 10 6 7 7 11 21 23 17 18 26 33 36 32 25 22 22 25 29 30 30 30 29 28 28 26 26 25 25 26 24 21 18 18 16 14 15 14 15 16 16 16 14 13 12 11 11 10 9 10 10 10 9 8 6 5 5 4 4 4 4 5 6 7 7 7 6 6 6 7 6
3 2 4 8 6 6 5 5 5 2 4 3 6 4 7 1 5 7 4 6 4 6 11 10 11 9 8 7 5 5 7 11 15 15 18 23 25 28 34 35 30 27 32 35 36 36 36 34 31 30 29 28 27 25 25 25 24 20 18 18 16 14 15 15 16 16 15 15 14 13 12 12 11 10 10 9 9 9 8 7 6 5 4 4 4 4 5 6 6 6 6 7 6 6 6 7 6
3 1 1 5 7 6 6 3 2 0 4 3 6 3 7 7 8 7 4 9 7 7 10 9 9 9 6 5 5 5 6 8 11 14 18 23 25 28 31 30 26 23 32 36 33 32 31 30 31 30 29 28 27 26 25 24 23 21 18 18 17 14 14 15 15 15 15 15 14 13 13 12 12 11 11 10 9 8 7 7 5 5 5 4 5 5 6 6 6 6 6 6 6 6 6 7 6
2 2 1 3 2 5 8 4 1 1 3 3 6 2 6 9 8 5 5 7 9 9 11 11 8 8 6 5 6 5 5 7 12 17 18 18 21 24 24 20 13 9 16 25 25 24 24 25 29 29 28 27 26 26 25 24 23 20 18 18 17 14 13 14 14 14 15 15 14 13 13 13 12 12 11 10 9 8 7 6 6 6 6 5 6 6 7 7 7 7 6 6 7 7 7 7 6
2 1 3 3 1 5 9 6 2 1 5 4 6 2 6 8 7 4 5 6 8 9 11 12 9 8 7 6 6 5 4 6 11 16 18 18 15 14 13 14 13 7 9 19 22 22 23 24 27 27 26 26 25 25 24 23 20 18 17 16 16 14 13 14 13 13 13 14 14 13 12 12 12 11 11 10 9 8 8 6 7 7 6 7 7 8 8 8 8 8 7 6 6 8 8 7 6
3 1 3 3 1 2 6 6 1 1 3 4 2 1 4 6 6 4 5 6 7 7 11 12 9 8 8 6 6 6 5 6 8 12 16 17 14 10 6 8 14 10 9 16 20 22 22 22 26 25 24 24 24 23 22 20 18 17 17 16 16 15 14 14 13 13 13 14 14 12 12 12 12 12 11 10 9 8 7 7 7 7 7 8 9 9 9 9 8 8 8 7 6 7 9 8 8
3 2 1 3 2 2 3 4 4 4 3 4 4 0 5 8 5 3 6 6 7 7 9 11 8 8 8 6 6 6 7 7 7 11 15 17 15 10 5 6 12 11 10 14 19 22 21 21 24 25 23 22 22 21 20 18 16 17 17 16 16 15 14 14 13 13 13 14 14 12 12 12 12 12 11 10 9 8 7 7 7 8 8 9 10 10 10 9 9 8 9 9 7 7 9 9 9
2 1 1 3 3 2 3 4 4 6 6 4 4 2 7 10 5 3 6 6 7 6 7 8 8 9 8 7 7 6 8 8 8 12 16 17 14 10 7 6 10 11 12 15 18 21 21 21 24 24 23 21 20 19 17 17 16 17 17 15 15 14 13 13 13 13 13 13 12 12 13 13 12 11 11 10 9 8 8 8 8 8 9 9 10 10 10 10 9 9 9 9 9 8 9 10 10
5 4 4 3 4 4 4 4 5 3 5 6 5 4 6 9 7 5 7 8 6 5 7 8 7 7 8 7 7 7 9 8 7 11 13 13 12 9 7 7 8 10 12 16 19 21 22 23 23 24 23 21 20 18 17 17 17 17 16 15 15 13 13 13 12 12 12 11 11 11 12 12 12 11 11 10 8 8 8 8 9 9 10 10 10 10 10 9 9 9 9 10 11 10 10 10 11
4 3 3 4 5 6 2 3 6 2 1 7 6 5 6 8 8 7 8 8 5 7 8 8 8 8 9 10 9 9 8 6 6 9 10 10 9 7 6 7 8 10 13 16 20 21 22 23 23 24 24 21 20 19 18 18 18 18 17 16 16 14 13 13 13 12 11 11 10 11 11 11 11 11 10 10 9 9 9 9 9 10 10 10 9 9 9 8 8 10 10 10 11 12 13 12 12
1 2 3 4 5 6 4 4 7 3 3 6 4 3 7 8 7 7 7 8 8 11 11 10 11 11 10 11 11 9 6 3 4 6 7 8 8 6 7 9 11 13 16 18 20 21 21 22 23 24 24 22 20 19 19 19 19 19 18 16 15 13 13 14 13 12 11 12 11 11 11 10 10 10 10 10 10 10 10 10 10 10 11 10 10 9 9 8 9 11 12 12 12 13 14 14 14
2 2 3 5 4 4 6 5 5 1 4 5 4 2 8 8 7 6 5 8 9 10 15 14 14 13 12 12 11 10 8 5 4 4 5 7 8 8 10 11 13 16 17 19 20 20 20 21 23 24 24 22 20 20 20 19 19 18 16 15 14 13 12 13 12 12 12 12 12 11 11 10 10 10 11 11 11 10 10 11 11 11 11 12 12 11 10 10 10 11 12 13 13 13 13 16 15
2 3 3 4 3 1 4 5 4 2 2 5 5 4 6 6 6 5 4 5 5 4 11 12 13 15 14 14 12 10 11 10 7 5 4 6 8 10 11 12 15 18 18 19 21 21 21 22 23 24 24 23 21 21 20 19 18 16 14 14 13 12 12 12 11 12 13 13 13 13 12 12 12 12 12 11 10 10 10 11 11 12 12 12 12 11 11 11 10 10 11 12 13 13 13 16 14
3 5 5 4 3 4 6 4 5 5 4 3 2 4 5 4 6 6 5 5 3 1 7 9 10 12 10 9 9 9 10 9 7 7 5 6 7 10 12 12 16 20 18 20 22 21 21 22 23 24 24 23 22 21 19 18 18 17 15 16 14 12 13 13 14 14 15 16 15 14 13 13 13 12 11 10 10 10 11 11 11 12 12 11 10 10 10 11 11 10 11 12 13 14 13 15 15
4 5 8 8 8 8 8 3 4 5 5 3 1 3 5 4 5 6 6 5 4 2 6 11 11 10 8 8 9 8 7 6 5 6 5 6 7 9 12 13 16 19 18 20 21 20 20 21 23 24 24 24 22 21 20 19 18 18 18 18 17 16 16 16 17 18 18 17 16 14 13 13 12 12 11 10 11 11 11 11 11 11 11 11 10 10 10 11 11 10 10 12 13 14 12 15 15
3 5 10 11 9 8 8 3 2 0 3 3 3 2 4 5 4 5 6 4 4 4 5 10 9 9 9 8 7 7 6 5 4 5 6 7 7 8 12 13 16 18 18 20 20 18 19 21 23 24 24 24 23 21 20 19 18 17 18 19 20 21 20 18 18 20 19 17 16 14 14 13 12 13 12 12 12 12 12 11 11 11 10 11 11 11 11 11 11 9 9 10 12 14 13 14 15
4 6 9 9 8 7 7 4 3 3 3 4 4 4 3 4 3 4 5 3 4 5 7 9 9 9 8 6 5 5 6 5 5 6 6 7 7 8 11 13 16 17 17 19 20 18 18 21 23 24 24 24 23 22 20 19 18 17 18 18 19 21 21 20 20 19 18 17 17 16 15 15 14 14 14 13 13 12 12 11 11 10 10 10 10 11 11 9 9 8 8 9 10 13 12 12 13
6 6 7 7 7 7 5 5 4 2 2 5 5 2 1 5 4 3 4 3 5 6 8 9 10 8 5 4 5 5 5 5 5 6 7 7 8 10 12 15 16 17 18 18 18 17 18 20 22 22 23 23 22 21 20 18 17 17 18 18 20 20 20 21 20 19 19 18 19 18 17 16 15 14 13 13 12 11 10 10 10 9 8 8 8 9 8 7 6 6 7 8 9 11 11 11 11
4 5 5 3 3 3 3 5 3 1 1 5 6 2 2 5 4 2 2 3 5 6 6 6 8 6 5 5 5 6 6 6 6 7 7 7 10 12 12 16 17 15 17 17 15 16 17 18 20 20 21 22 20 20 19 18 18 17 18 20 22 21 20 21 20 19 19 20 21 19 18 16 15 13 12 11 10 10 9 9 8 8 7 7 7 6 5 5 5 5 6 7 8 9 10 10 9
2 5 4 5 5 4 3 2 3 2 3 7 5 3 3 3 5 3 2 3 5 5 4 5 6 6 6 6 5 6 6 6 7 7 7 8 13 15 12 16 18 14 15 17 15 15 17 18 19 19 19 20 20 19 18 18 18 18 20 22 24 23 22 21 20 20 21 21 21 19 17 16 14 13 12 11 10 9 9 8 8 8 8 7 6 4 3 4 3 3 4 6 7 7 8 8 7
2 3 4 3 2 3 4 4 3 2 5 7 3 3 6 2 4 3 4 5 5 5 6 6 5 5 5 4 4 5 4 5 6 6 6 7 11 14 11 12 17 16 16 18 17 16 17 18 19 19 18 19 19 18 18 18 18 19 21 24 25 24 23 22 22 22 22 22 21 18 17 15 14 13 12 11 10 10 10 9 9 8 7 6 5 3 3 3 2 2 3 5 6 6 6 6 7
4 3 4 3 1 2 2 3 0 3 7 5 1 3 4 3 4 4 7 8 7 6 7 5 3 3 2 2 3 4 5 4 3 3 2 2 5 11 11 8 14 18 17 17 18 17 18 18 20 20 19 19 20 19 18 18 18 20 22 24 24 23 22 22 22 22 22 21 20 18 17 16 15 14 13 11 10 11 11 10 9 7 6 5 4 3 3 2 2 2 3 4 5 5 5 5 6
6 5 5 4 2 2 1 3 1 3 6 3 1 1 2 2 2 4 8 8 8 7 5 2 3 4 4 4 6 7 7 5 2 2 1 1 2 8 12 8 9 16 17 16 18 18 18 18 19 20 20 19 19 19 18 18 19 20 22 23 22 22 22 22 22 21 20 20 19 18 17 16 15 13 12 11 10 11 12 10 7 5 5 5 5 4 4 3 3 3 4 4 5 5 5 5 4
4 4 5 5 4 4 3 4 3 3 4 2 2 0 2 2 1 4 5 5 7 3 2 5 5 6 6 6 7 6 4 2 2 4 4 2 4 6 11 10 6 11 15 14 15 16 16 17 18 20 20 19 19 19 18 19 21 22 22 22 22 22 22 22 21 19 18 19 19 18 17 15 14 12 11 11 11 13 12 9 6 5 6 6 6 5 5 4 4 4 6 6 6 6 5 6 5
2 2 5 3 5 5 2 3 4 2 1 1 2 1 2 2 3 5 3 5 9 7 5 7 6 7 8 8 7 4 2 2 2 4 5 4 5 7 10 11 7 8 12 12 11 12 14 16 17 18 19 19 18 18 19 20 22 23 23 22 21 21 21 21 20 18 17 18 18 18 16 14 13 12 11 12 14 14 11 8 7 5 5 5 5 5 4 5 5 6 7 7 7 7 6 6 5
1 2 4 4 4 7 4 2 1 3 2 1 1 1 4 2 2 5 6 8 9 8 7 6 6 7 8 8 7 5 3 3 3 3 5 6 6 7 9 12 9 7 11 13 11 9 12 14 14 15 17 18 17 18 18 20 22 23 23 22 22 21 21 21 20 19 18 18 18 17 16 15 14 12 12 14 15 13 10 9 8 6 5 4 5 4 4 5 5 6 7 7 7 7 6 5 5
4 3 5 2 2 4 4 2 3 4 2 3 2 1 3 1 1 4 7 7 7 7 7 5 5 7 8 8 7 6 5 5 5 4 4 7 7 5 8 12 14 10 9 14 15 11 11 14 13 11 13 15 16 17 17 19 21 22 23 22 22 22 22 21 20 20 20 19 19 18 16 15 14 13 12 13 13 13 11 10 8 7 5 3 3 3 4 6 6 6 7 7 7 6 5 5 5
4 4 4 4 2 1 1 2 1 1 2 3 3 2 2 2 2 4 6 5 5 5 7 7 6 7 7 7 7 6 6 6 6 6 4 6 8 8 9 13 18 18 13 14 17 14 12 15 14 9 9 12 14 15 17 19 20 21 22 23 23 23 22 21 22 21 21 20 19 18 17 15 14 13 12 12 12 12 12 11 9 7 4 3 2 4 6 8 8 8 7 6 6 5 5 7 7
2 3 2 2 3 4 2 2 3 3 3 1 2 3 2 3 2 4 6 6 6 4 5 7 7 7 7 7 6 5 6 5 6 7 6 6 8 11 12 13 17 20 18 15 15 14 12 14 15 13 14 18 18 17 18 20 21 22 23 23 23 23 22 22 22 22 20 19 17 16 15 15 14 13 12 12 11 11 11 10 9 7 5 3 3 5 7 8 9 9 7 6 6 6 6 7 8
2 3 2 0 2 2 2 1 2 3 4 3 1 1 4 4 1 4 6 6 5 3 4 6 6 7 6 6 6 6 6 6 5 5 5 4 6 9 11 13 16 19 19 17 16 14 13 15 16 19 22 25 23 20 20 20 21 22 22 23 23 23 22 22 22 21 19 18 16 14 14 14 13 13 12 11 11 11 11 10 9 7 5 4 4 6 7 8 9 9 7 7 7 6 7 7 7
4 4 4 4 3 4 3 0 1 2 3 4 4 2 5 4 1 3 4 3 3 3 6 6 6 6 5 4 5 5 7 7 6 6 4 3 3 3 6 7 10 14 17 18 17 16 15 16 19 22 23 25 24 23 21 20 21 21 22 23 23 23 23 22 21 20 18 17 16 14 14 14 14 13 12 11 11 12 11 10 9 8 6 6 6 6 7 9 9 9 8 8 7 6 6 7 7
Wind_Direction
120 110 99 71 358 335 351 58 95 323 84 250 268 206 257 232 230 281 280 309 303 271 244 308 299 173 141 184 171 143 106 171 164 152 211 213 140 149 155 152 150 148 146 149 152 155 155 154 152 152 150 145 140 137 137 137 139 137 137 138 136 136 136 135 132 129 128 127 126 127 128 128 126 125 124 123 122 119 120 123 125 123 122 121 121 121 119 118 117 116 115 114 113 111 109 108 108
118 112 98 83 8 47 201 68 98 329 53 288 272 183 249 255 221 236 220 225 223 259 298 301 342 104 66 82 134 109 45 345 147 155 86 132 136 144 152 151 150 148 147 150 154 155 154 153 153 153 151 146 141 138 139 140 142 138 137 135 133 134 134 133 130 129 128 127 127 126 126 126 124 124 125 124 122 119 120 124 125 124 123 124 124 123 121 120 119 118 116 115 114 114 113 109 108
120 117 105 117 29 43 91 46 88 91 106 246 270 225 235 191 223 217 200 227 240 274 296 282 307 154 4 39 24 50 106 346 109 112 107 136 138 145 151 150 149 148 148 151 155 156 153 153 154 154 151 146 142 140 141 141 141 138 136 133 134 135 133 132 132 133 132 131 130 130 130 128 127 128 128 126 123 121 122 124 125 125 124 125 126 126 124 122 121 120 118 117 117 117 116 112 110
121 115 109 131 60 30 67 51 135 129 177 229 268 255 223 216 248 292 236 243 268 285 266 267 337 274 338 69 300 26 142 114 106 113 124 149 152 150 150 148 149 148 149 152 155 155 152 153 155 155 151 147 143 141 142 141 139 136 134 134 137 136 134 134 134 134 133 133 131 133 134 132 132 132 129 124 123 123 124 125 124 125 125 126 128 129 127 124 123 122 120 120 119 117 116 113 112
125 119 110 103 93 54 100 85 125 142 214 199 240 260 230 232 264 290 270 275 289 285 230 158 2 299 18 90 172 109 163 101 121 145 119 142 151 149 150 148 148 147 149 152 154 153 151 154 156 155 151 147 144 143 143 141 140 137 135 136 136 135 135 134 133 133 133 134 135 136 135 132 131 130 126 123 124 126 127 128 127 127 126 129 130 130 128 126 125 124 123 121 119 117 116 113 111
130 127 86 66 102 155 114 135 192 225 230 175 231 268 248 236 245 278 297 299 285 274 217 130 106 296 32 343 46 124 192 138 147 154 130 141 150 150 150 149 147 147 150 153 154 152 152 156 156 154 152 148 145 144 144 142 142 140 137 137 136 135 135 134 133 133 134 135 137 139 138 135 133 130 128 128 130 131 133 133 131 129 128 132 133 131 129 127 127 125 125 122 121 119 116 113 110
138 130 45 64 44 30 113 194 218 242 248 185 219 275 277 270 273 301 315 314 299 299 29 107 134 114 46 316 346 22 19 130 145 147 146 145 150 151 151 150 147 148 151 154 153 151 154 158 156 154 152 149 147 146 145 143 143 142 141 140 138 137 135 134 135 135 136 137 139 141 140 139 138 135 134 135 135 136 139 136 130 126 126 130 133 132 130 129 130 129 127 125 124 121 117 112 107
141 130 23 98 41 11 110 244 241 219 250 225 234 264 273 282 295 301 299 300 298 299 8 148 125 99 297 355 349 342 22 86 138 145 147 146 151 151 151 151 147 148 153 155 153 153 156 157 155 154 153 150 148 148 146 144 143 144 145 144 142 139 137 137 138 138 138 141 142 142 139 139 140 136 136 140 139 140 141 137 130 125 124 126 130 133 133 134 133 131 128 126 124 121 114 108 103
111 72 87 101 103 12 5 272 264 235 250 260 263 261 267 280 277 270 270 269 264 265 209 179 126 116 195 42 49 328 24 105 134 142 147 148 153 151 153 153 149 150 153 154 153 156 157 156 155 154 154 152 150 149 147 145 145 146 147 146 145 143 142 142 141 142 142 143 144 141 139 139 139 134 135 141 145 145 142 138 131 126 126 126 127 132 136 135 134 132 129 127 123 119 110 103 99
52 31 131 86 112 277 300 262 255 252 251 259 266 268 273 280 265 241 255 262 246 254 223 155 91 118 137 98 121 331 62 132 133 140 148 151 153 152 153 154 153 152 153 155 156 158 156 155 156 155 156 153 152 152 149 148 148 148 147 146 147 147 147 146 145 146 144 143 143 141 140 140 138 136 137 142 146 149 145 139 132 129 128 127 125 130 136 135 135 133 129 127 122 118 111 103 99
37 349 105 76 93 208 256 255 265 265 278 288 282 273 259 263 267 249 238 250 241 219 217 129 101 129 115 118 128 41 142 139 136 141 150 154 154 154 153 153 155 153 154 156 157 156 154 155 155 156 156 154 155 155 152 150 150 148 148 149 149 150 151 149 148 149 144 142 143 142 142 140 139 140 143 143 144 149 149 145 137 131 130 128 125 131 139 139 138 134 128 125 121 118 113 105 100
83 329 69 95 151 207 219 252 273 285 298 289 283 283 250 266 285 276 239 240 233 173 205 177 154 144 102 117 118 116 138 143 144 145 153 156 155 155 152 152 154 154 153 155 155 153 153 154 153 155 156 158 160 157 154 152 151 149 148 152 151 151 153 151 150 149 145 143 144 142 142 142 143 144 144 141 140 144 148 148 141 135 134 130 124 130 140 142 139 134 129 125 120 118 114 108 103
120 152 86 128 189 196 195 238 276 310 307 263 256 291 333 317 305 287 251 230 193 158 210 178 146 116 98 124 116 139 148 156 151 149 154 156 156 154 152 152 153 155 153 152 152 151 153 154 153 155 157 160 163 158 155 153 152 150 149 152 153 152 154 153 151 150 147 146 146 143 142 143 144 144 140 137 135 136 140 144 143 140 137 132 125 129 137 144 143 138 132 127 122 118 115 112 108
142 153 111 155 214 184 185 240 287 305 281 260 260 309 333 323 302 302 41 8 212 174 200 147 133 103 105 137 135 175 164 160 155 152 154 155 157 153 152 151 153 154 150 150 151 153 155 156 157 155 157 161 162 159 156 154 153 151 149 151 153 153 154 153 152 150 149 148 148 144 144 145 145 142 137 135 132 131 135 139 140 137 136 134 133 132 135 143 145 142 136 130 125 119 117 118 116
157 131 96 130 264 257 209 208 225 191 258 283 346 324 337 321 308 349 57 55 295 264 126 116 127 103 160 178 179 187 163 159 157 153 152 152 154 151 152 150 149 149 147 149 152 157 158 159 159 156 161 163 162 161 157 155 154 152 149 150 153 155 155 153 148 145 145 146 146 145 145 145 141 137 134 134 132 131 135 136 135 135 136 136 138 135 135 141 144 144 140 132 127 122 122 123 123
141 101 77 110 241 232 217 198 176 205 263 271 272 346 349 329 342 19 358 91 186 312 45 119 222 79 176 193 176 160 156 158 155 152 149 147 148 148 149 147 146 146 147 152 156 162 162 162 161 160 164 164 165 162 157 157 156 153 150 150 154 156 154 149 144 141 142 142 142 143 141 137 131 128 127 131 136 138 138 135 134 135 135 137 140 137 134 139 145 147 143 135 129 127 127 128 129
79 82 83 257 226 199 202 197 177 212 268 291 319 1 357 323 340 55 6 52 101 353 12 27 319 20 187 180 149 150 152 156 152 148 145 143 144 143 146 146 144 146 151 158 162 165 166 165 163 164 166 165 167 163 159 159 156 153 149 151 153 151 148 144 142 140 140 139 140 142 137 130 126 125 126 130 136 137 137 136 136 138 140 142 143 142 141 142 145 147 143 136 130 130 133 133 132
73 98 127 217 213 194 187 189 193 223 302 313 321 353 351 321 330 317 39 34 19 19 13 6 12 23 118 136 142 147 151 154 152 148 144 141 140 140 145 146 146 152 159 163 167 168 167 166 165 165 166 167 168 163 160 158 155 152 149 153 150 144 143 145 144 141 140 139 141 140 135 130 126 125 126 128 130 131 134 136 135 136 138 137 139 143 145 143 140 138 136 134 129 130 137 137 135
123 117 159 230 206 207 194 186 229 272 294 305 310 343 351 314 317 324 325 342 350 18 15 71 81 82 109 131 141 147 152 155 153 149 144 141 141 144 146 149 154 158 162 166 168 168 167 166 166 166 167 169 167 162 160 158 155 151 151 152 147 145 149 151 149 146 143 142 141 138 134 130 127 125 123 125 125 128 130 130 129 128 129 128 132 134 133 136 134 133 131 129 126 126 135 138 137
175 120 204 241 201 224 231 213 246 258 272 302 307 330 341 303 291 325 280 232 315 254 207 136 143 152 143 145 147 152 157 158 156 151 146 143 142 148 153 158 161 161 162 165 166 169 170 167 165 166 169 170 165 162 160 160 157 154 156 154 150 153 155 155 153 149 146 143 142 139 136 132 129 128 125 125 126 128 128 128 127 125 124 121 123 124 125 131 133 135 131 126 124 122 128 132 134
182 155 211 229 166 250 264 248 250 264 278 289 306 325 321 300 296 38 141 240 277 239 221 209 182 166 157 158 156 158 161 163 159 153 151 147 148 156 161 164 161 159 160 162 165 169 170 168 165 168 171 169 165 164 162 162 162 158 160 159 156 159 159 158 154 151 148 146 145 143 141 138 136 134 131 131 130 131 130 129 128 126 122 118 119 120 121 124 130 135 133 130 125 121 121 121 129
166 238 239 239 246 285 275 267 267 268 289 302 310 317 303 305 320 243 186 234 247 231 223 220 193 169 159 159 160 164 166 165 161 161 160 150 149 152 152 156 155 155 158 161 165 165 169 170 168 170 172 171 169 168 165 164 166 164 164 164 161 162 162 160 158 157 155 152 151 149 147 144 141 138 136 136 133 133 133 131 130 128 123 117 116 115 116 117 123 133 137 136 129 124 120 115 119
209 265 270 253 235 259 272 277 277 277 305 301 291 299 302 321 313 265 206 230 239 258 223 178 178 171 156 155 153 147 135 124 130 170 172 154 138 140 144 142 140 150 155 157 158 160 171 174 171 172 173 174 174 172 169 165 168 169 167 166 164 164 162 159 161 163 162 160 159 157 154 148 144 142 141 138 137 137 136 136 134 129 123 119 115 113 116 118 122 133 144 147 139 127 120 116 116
222 260 289 263 219 227 254 266 278 288 277 267 276 318 306 294 300 290 219 244 254 278 200 146 154 153 143 129 106 97 83 69 59 61 90 122 114 120 132 121 110 136 138 142 154 162 172 177 176 175 175 176 176 175 171 167 171 172 167 168 168 166 166 165 165 167 168 165 162 162 160 154 150 148 146 143 141 142 143 142 138 131 125 122 118 112 112 116 126 140 151 158 151 134 125 126 126
229 245 283 274 242 238 260 276 281 284 262 257 297 294 281 254 258 291 263 267 275 199 142 139 143 137 128 107 102 108 99 90 83 75 79 89 84 78 78 70 81 131 138 141 159 169 172 180 183 182 181 179 177 176 172 170 174 172 168 171 168 167 174 173 170 171 169 167 164 166 169 163 158 156 153 149 147 148 149 147 142 133 126 124 118 109 104 107 117 134 149 155 151 145 139 144 153
230 227 262 262 268 272 282 286 276 282 270 211 313 282 287 274 230 278 267 245 159 139 133 143 138 128 117 112 122 124 107 103 101 103 114 115 114 110 106 131 161 147 159 156 164 175 177 183 188 190 189 184 180 178 174 175 176 173 171 170 165 167 175 172 171 172 168 167 167 169 176 172 166 165 162 157 157 156 152 150 143 132 125 120 115 108 106 106 104 116 138 147 147 149 148 149 155
215 211 253 252 267 282 280 282 277 293 288 218 245 271 294 326 213 270 269 187 137 128 124 137 124 116 118 126 136 120 113 124 128 145 153 134 137 144 148 169 197 196 182 173 174 181 186 188 190 194 194 189 185 181 178 179 177 174 171 168 168 169 171 168 166 168 167 168 170 173 178 176 174 175 173 168 165 163 157 154 146 134 129 121 120 116 110 111 111 115 129 141 145 150 148 143 141
233 240 284 277 288 293 257 268 275 289 286 220 190 259 307 13 217 245 245 163 143 136 128 128 118 114 124 134 139 118 120 141 145 155 164 152 150 153 153 162 181 196 195 189 189 189 190 192 191 193 194 193 190 185 181 179 176 176 172 170 176 175 170 166 160 161 167 170 172 176 179 180 184 186 184 178 171 167 161 160 153 141 142 138 143 141 123 119 121 123 129 134 137 143 144 137 137
275 258 293 295 330 323 266 257 266 195 261 205 144 295 317 264 230 254 215 139 124 130 130 127 123 122 127 136 133 118 131 148 161 168 166 161 159 161 159 154 159 186 204 204 198 193 191 192 191 191 193 195 193 188 182 178 178 181 178 176 181 180 171 164 159 161 166 169 174 178 182 184 188 193 190 185 178 172 168 167 162 154 163 168 163 157 147 137 130 131 136 138 134 133 137 136 143
289 269 215 310 350 324 279 282 334 202 242 179 139 288 293 260 258 267 203 141 130 134 136 129 122 126 132 142 136 132 140 152 174 184 176 167 164 165 164 158 153 177 203 203 196 191 188 185 186 190 193 196 194 189 183 180 182 181 178 179 183 181 170 163 162 165 168 172 176 179 184 186 188 193 191 188 183 178 180 178 178 183 183 182 173 164 161 155 145 143 143 144 137 129 132 139 153
314 298 287 353 358 284 297 303 0 325 276 137 137 227 266 273 286 259 207 151 147 152 149 140 128 131 140 149 145 147 159 173 186 189 191 182 173 171 177 187 178 172 189 185 185 188 186 181 181 185 190 195 193 190 187 185 185 179 174 178 181 181 173 167 166 169 173 175 178 180 184 188 189 192 191 191 188 187 193 192 191 194 191 185 177 169 166 161 156 153 147 145 139 134 136 142 155
13 311 295 347 180 264 309 300 162 222 296 69 116 215 270 277 291 247 196 161 164 157 154 150 134 136 146 156 153 147 162 192 198 197 202 198 190 187 200 210 192 159 156 169 178 183 184 182 181 182 186 193 193 190 190 186 183 175 168 171 178 181 177 173 171 173 176 177 179 181 184 189 191 193 193 194 196 197 198 194 186 187 191 184 178 172 168 165 164 159 149 147 144 138 143 148 151
358 54 260 299 275 279 318 311 7 180 282 9 65 219 279 286 312 279 205 177 182 159 156 152 135 144 155 161 159 152 161 190 208 211 210 205 204 208 221 205 182 171 163 168 174 177 178 176 179 184 186 191 192 189 189 186 181 175 168 169 177 179 178 179 179 182 183 180 182 182 183 189 191 189 190 192 195 197 193 185 179 182 189 184 180 178 172 170 169 167 154 148 149 146 151 153 143
322 15 250 262 254 254 308 300 326 20 45 355 350 81 257 278 324 281 220 189 188 169 158 151 140 155 164 166 165 163 174 186 201 212 214 211 214 218 210 182 178 174 166 168 173 175 172 166 172 182 185 189 191 189 188 185 180 174 170 172 176 176 180 186 186 188 188 183 182 184 187 188 188 185 185 187 187 190 186 180 183 185 186 186 185 182 180 175 167 170 164 149 148 155 157 156 144
209 235 220 281 287 246 240 259 305 4 19 348 344 329 264 279 309 259 233 209 196 172 149 149 150 161 168 174 174 174 187 197 195 199 209 213 217 220 204 173 170 173 168 168 173 174 171 167 170 177 183 186 186 185 181 176 173 168 167 170 173 174 178 181 182 184 185 184 182 185 191 190 187 185 183 185 184 186 183 182 190 192 190 189 187 185 185 180 166 167 167 151 149 157 161 159 149
159 179 173 220 276 261 220 236 275 347 357 319 290 267 259 275 285 255 235 223 192 137 137 152 155 164 175 181 183 184 194 204 194 185 191 201 211 216 204 176 168 174 170 166 169 171 171 172 170 173 182 185 180 177 172 168 165 162 163 163 164 168 171 171 175 181 184 184 182 183 189 189 187 186 186 187 185 183 183 188 195 195 192 187 185 188 186 182 170 165 165 155 151 151 155 157 151
131 163 192 220 248 269 238 243 264 197 32 288 260 248 260 266 267 242 224 219 177 141 155 164 165 175 183 187 189 190 197 200 179 171 173 180 191 198 191 177 169 169 169 167 166 167 169 173 172 172 180 185 180 175 171 168 163 158 159 161 164 166 168 172 174 180 184 184 183 184 185 184 185 187 187 185 181 182 185 191 194 191 189 182 182 189 186 183 172 166 166 161 156 150 150 153 153
129 206 252 264 241 261 265 246 260 196 152 265 268 275 272 267 262 246 215 204 193 174 169 171 178 184 188 190 190 188 193 190 162 161 162 163 166 168 170 173 171 166 166 168 166 167 169 173 177 177 179 183 182 179 175 170 167 165 164 166 168 165 167 174 175 176 180 181 182 183 184 183 184 183 181 180 179 183 185 187 188 185 184 179 179 184 187 184 170 170 174 169 165 158 154 157 158
157 178 246 266 253 284 290 271 279 157 147 258 299 314 275 280 281 266 222 211 217 192 180 179 179 183 190 191 187 182 184 189 185 169 154 155 156 156 163 173 175 168 166 167 166 170 172 173 178 180 180 181 182 182 178 172 170 171 171 169 167 164 165 171 172 172 174 176 176 177 181 181 179 178 177 178 178 180 182 182 182 184 183 178 177 181 188 188 176 177 182 180 175 162 156 163 166
167 181 216 258 266 322 285 291 320 317 221 256 287 306 284 304 321 304 280 263 276 210 188 186 184 188 192 190 185 182 183 186 185 175 159 153 153 159 169 177 171 167 169 168 169 173 173 174 177 178 179 179 179 180 179 174 170 169 168 166 165 164 161 163 164 164 168 170 167 167 170 173 173 174 173 175 178 180 179 179 179 182 183 180 180 186 193 195 189 185 186 190 186 171 161 169 178
247 215 207 234 251 217 229 278 330 324 312 249 251 329 305 332 349 327 320 317 322 173 177 188 201 201 193 184 183 186 185 186 181 178 169 149 155 166 177 179 164 167 174 171 173 176 173 174 176 177 178 177 178 179 179 175 167 163 159 157 159 155 150 157 157 156 163 164 160 160 162 167 168 166 167 172 180 180 177 178 179 180 180 179 182 190 195 195 194 191 187 193 197 190 175 175 184
282 236 206 210 225 229 239 278 0 356 335 288 83 15 298 320 348 323 329 340 331 295 190 192 200 200 194 185 182 181 178 180 174 175 164 143 156 165 173 177 163 167 179 177 178 178 175 177 176 176 177 176 177 178 178 177 170 166 163 161 160 155 150 158 161 159 161 160 158 158 159 163 163 161 165 170 176 177 173 173 174 174 174 173 175 179 183 186 190 193 192 194 201 204 194 181 183
277 240 201 206 217 230 246 238 99 66 267 289 46 105 263 308 347 323 323 327 314 297 223 203 199 196 200 193 179 167 168 173 155 153 152 147 164 164 166 173 164 167 180 181 181 180 178 179 178 177 177 176 177 176 178 178 174 173 174 172 169 163 158 161 165 162 159 158 158 158 158 159 160 162 163 164 167 168 167 167 169 170 171 173 174 173 175 181 187 193 198 199 199 204 205 194 189
246 228 179 184 204 220 232 190 168 234 260 318 19 117 224 296 303 294 300 299 302 277 229 213 208 205 202 185 153 145 163 177 157 149 151 154 169 163 160 168 166 169 180 182 183 183 180 180 181 179 177 176 176 177 178 179 179 179 178 174 169 167 162 161 164 161 158 158 158 158 157 156 159 161 161 161 163 164 166 168 169 171 170 170 172 174 177 182 188 196 203 206 202 202 209 209 203
245 214 164 168 185 196 190 157 189 252 350 312 308 109 177 277 271 298 316 303 283 255 231 217 211 209 195 159 132 133 147 155 148 148 155 159 161 156 159 163 163 171 181 185 186 183 179 179 181 179 176 176 176 177 179 181 183 183 178 172 164 162 161 159 161 161 160 160 158 156 157 157 159 160 161 161 163 164 166 168 170 171 167 162 165 172 181 190 198 209 212 213 211 205 208 213 215
231 165 140 107 97 118 128 137 166 91 42 263 264 171 182 279 280 287 319 290 268 253 242 222 211 201 171 150 143 144 139 137 146 149 155 163 155 151 156 158 161 173 181 185 188 182 177 177 178 177 175 176 176 179 181 180 184 185 180 171 162 158 158 158 160 161 161 161 158 157 159 160 160 160 159 157 158 162 164 167 171 175 171 167 167 171 190 208 212 220 219 216 216 210 207 210 218
145 115 103 62 43 42 61 86 102 101 261 259 257 184 173 275 284 246 208 257 276 275 264 234 215 197 174 166 162 155 142 138 148 148 154 160 153 153 154 153 159 171 177 183 189 181 177 178 176 175 175 177 177 180 182 180 183 186 181 172 164 161 160 160 162 163 163 163 160 160 162 162 163 164 162 158 158 161 165 167 170 174 175 174 175 177 206 221 216 217 213 208 208 207 205 205 208
110 82 90 81 353 19 32 3 49 145 251 264 262 163 147 181 272 278 275 278 283 268 255 249 231 208 188 174 154 142 129 134 146 148 158 160 152 156 157 148 154 163 169 179 186 183 179 179 177 174 174 178 178 180 183 180 182 184 180 174 168 164 163 164 165 166 166 166 163 163 166 166 169 172 172 169 165 165 168 168 168 174 178 179 182 191 208 209 195 176 177 186 197 200 199 197 193
130 106 98 104 322 27 20 304 241 214 250 257 241 139 148 202 243 281 301 299 292 263 249 253 238 203 161 72 61 65 59 66 96 105 138 178 147 153 163 154 148 155 164 173 180 184 181 179 180 176 174 178 179 180 181 179 182 184 180 178 174 170 169 170 171 172 173 173 169 168 171 172 175 178 179 180 174 170 172 169 167 172 174 172 174 177 173 153 131 121 134 152 173 181 184 186 186
156 150 143 143 124 84 280 270 253 260 259 263 345 145 202 254 261 301 308 309 301 270 235 186 143 125 100 79 70 68 58 47 61 103 109 319 61 137 162 171 149 150 161 169 172 178 179 178 181 178 174 177 178 178 179 179 183 186 184 183 182 179 178 179 178 178 179 181 179 175 175 178 181 180 179 184 178 171 169 164 162 157 145 145 148 148 139 114 106 117 123 134 145 153 161 167 171
171 165 139 145 155 149 199 222 206 252 262 289 329 149 171 198 289 306 297 319 341 338 109 104 109 111 105 94 77 69 68 75 135 141 132 97 41 102 150 165 156 147 156 164 165 171 176 177 179 179 174 175 178 179 179 181 185 188 188 186 186 185 184 184 182 180 181 183 182 180 179 181 184 181 179 181 174 166 162 157 153 142 130 134 138 136 128 117 118 127 122 119 124 127 133 141 139
211 134 110 154 181 153 154 186 171 189 220 306 326 251 207 214 283 317 332 15 18 24 53 70 82 88 91 91 86 77 59 72 106 133 142 127 68 72 127 148 146 143 159 167 163 167 177 178 180 181 176 174 180 183 183 186 188 189 189 187 187 186 184 181 179 178 179 179 180 183 184 183 182 178 175 173 166 162 161 155 148 140 136 144 153 154 147 135 133 135 128 117 115 119 123 125 115
170 129 169 216 172 126 117 188 91 75 140 247 349 303 308 317 308 333 8 29 29 27 34 55 73 78 82 89 101 109 99 80 83 120 145 133 94 67 100 133 141 139 158 170 172 176 182 182 184 183 177 175 181 187 188 190 191 190 190 189 188 187 184 181 177 175 177 178 180 183 182 179 178 176 173 170 166 164 161 157 151 146 149 159 166 173 175 163 151 145 139 127 120 121 124 122 110
126 179 203 189 87 94 108 152 11 48 168 267 349 245 293 333 189 329 360 16 19 25 32 41 57 76 84 80 77 77 76 79 71 79 129 137 128 103 106 139 162 170 165 168 177 189 186 184 191 191 181 176 182 190 192 194 194 192 190 190 190 188 186 183 179 176 177 180 182 182 179 176 175 176 174 171 170 170 168 164 161 157 155 161 165 162 164 168 169 162 150 138 130 128 128 125 119
140 174 166 110 122 190 102 134 147 107 190 289 328 293 258 190 203 326 343 347 346 11 40 42 43 67 81 78 70 58 59 69 69 71 105 128 136 155 151 151 168 179 183 175 178 188 184 177 183 186 177 176 185 194 195 195 197 195 193 192 192 191 189 186 183 180 180 182 182 182 179 176 174 174 174 170 168 170 172 171 168 166 161 152 156 153 152 160 170 171 162 152 146 148 147 135 126
64 117 115 71 131 166 160 143 157 160 168 239 315 333 288 223 246 313 313 324 328 343 53 54 53 67 77 80 79 68 64 74 88 92 100 121 148 178 175 156 160 173 183 184 184 189 175 163 172 186 191 188 189 194 196 196 196 197 196 194 194 195 192 189 185 182 183 183 184 184 182 180 176 175 176 173 169 169 171 173 172 171 166 163 167 158 154 158 164 166 165 161 160 166 165 144 128
98 130 169 125 82 133 153 83 95 131 146 168 174 301 271 251 270 308 307 325 322 321 66 64 60 70 80 89 91 92 86 76 79 80 75 113 158 188 185 166 159 164 172 179 180 173 152 152 178 200 199 190 186 190 195 196 196 196 197 196 197 197 194 192 187 185 185 184 186 189 187 186 181 178 178 177 176 174 172 173 174 171 168 176 180 168 163 165 163 162 162 156 150 154 157 144 131
165 175 190 174 134 124 128 282 311 102 123 158 158 199 265 269 306 315 318 356 359 25 71 69 57 62 63 64 74 91 92 76 62 57 41 40 93 157 196 184 158 150 151 156 158 157 158 177 197 202 196 189 187 189 191 194 195 196 198 200 200 199 196 193 189 187 187 187 190 193 192 191 185 181 181 181 180 178 176 173 172 173 175 182 188 185 178 176 171 165 160 154 146 141 140 135 130
Height
767 768 768 770 770 771 773 773 784 791 793 800 797 794 781 772 772 768 766 762 761 756 751 751 749 748 750 752 750 750 753 754 756 767 768 752 748 751 751 753 755 757 760 763 766 769 771 774 776 779 781 781 782 783 784 785 786 787 789 790 792 793 795 796 798 799 800 801 802 803 804 805 806 807 808 810 811 812 814 815 816 817 818 819 820 820 821 822 823 824 825 825 826 826 827 827 828
767 768 768 770 770 771 776 777 790 799 798 799 794 790 776 771 772 766 765 762 759 753 748 750 748 748 748 748 747 749 753 751 749 752 752 749 751 753 753 755 756 758 759 763 766 768 771 774 777 779 781 782 783 784 785 786 787 788 789 790 792 794 796 797 799 800 801 802 803 804 805 806 807 808 809 811 812 813 814 816 817 818 819 820 820 821 822 823 824 825 826 826 827 827 828 828 829
767 768 768 770 771 772 778 780 793 804 801 798 790 782 774 769 767 763 763 759 754 750 749 749 749 749 749 751 750 751 754 750 748 749 750 751 751 753 755 756 757 759 760 763 766 768 771 774 777 780 781 782 783 784 786 787 788 789 790 791 793 795 797 798 800 801 802 803 804 806 806 807 808 809 810 811 813 814 815 817 818 819 820 821 821 822 823 824 825 826 826 827 828 828 829 829 829
767 768 769 770 773 776 781 786 794 800 798 796 784 772 771 767 763 763 759 756 753 750 751 750 751 748 748 754 751 752 754 750 748 748 750 751 752 753 755 757 759 760 762 764 766 769 771 774 777 779 781 782 784 785 786 788 789 790 791 792 794 796 798 799 801 802 803 804 806 807 807 808 809 810 811 813 814 815 816 818 819 820 821 821 822 823 823 824 825 826 827 828 829 829 830 830 830
767 769 770 770 776 779 783 793 800 798 790 789 777 765 768 765 762 762 757 756 752 749 750 750 753 748 745 751 750 753 754 751 749 747 750 751 752 754 756 758 760 761 764 765 767 770 772 775 777 779 781 782 784 786 787 789 790 791 792 793 795 797 799 800 802 803 804 805 807 808 808 809 810 811 812 814 815 816 817 818 820 821 821 822 823 823 824 825 826 827 828 829 830 830 831 831 831
768 769 770 770 776 778 786 796 798 796 784 782 776 764 765 763 763 760 756 754 748 747 747 748 754 751 751 750 748 751 750 750 749 748 749 751 753 755 757 759 760 762 764 766 769 771 773 776 778 779 781 783 784 786 788 790 791 792 793 794 796 798 800 802 803 804 805 807 808 809 809 810 811 812 814 815 816 817 818 819 820 821 822 823 824 824 825 826 827 828 829 830 830 831 832 832 832
768 770 772 774 779 780 790 796 792 793 782 778 776 765 762 761 762 760 758 756 748 747 746 748 749 752 757 753 750 749 747 747 747 748 749 751 753 755 758 759 761 763 765 767 769 771 774 776 778 780 781 783 785 787 789 791 792 793 794 796 797 799 801 803 804 805 806 808 808 809 810 811 812 813 815 816 817 818 819 820 821 822 823 824 824 825 826 827 827 829 829 830 831 832 833 833 833
768 771 775 778 786 788 793 795 791 792 782 774 773 765 761 759 761 761 760 759 752 749 749 749 746 754 759 754 756 751 746 748 746 749 750 752 754 756 758 759 761 764 766 768 770 772 774 777 779 780 782 784 786 788 790 791 793 793 795 796 798 800 801 803 805 806 807 808 809 810 811 812 813 814 816 817 818 819 820 821 822 823 824 825 825 826 827 827 828 829 830 831 832 833 833 834 834
768 772 777 781 789 792 793 793 790 787 779 772 768 762 759 758 760 760 759 758 753 748 749 748 746 754 759 758 760 752 749 750 748 750 751 753 755 756 758 759 761 764 767 769 770 772 774 777 779 781 783 784 786 788 790 792 793 794 796 797 799 800 802 804 805 807 807 809 810 811 812 813 814 815 816 818 819 820 821 822 823 824 824 825 826 827 828 828 829 830 830 832 833 833 834 835 835
770 773 777 783 790 794 794 791 787 782 775 770 765 759 758 758 758 758 757 755 750 748 747 745 748 754 758 761 761 755 754 752 750 752 753 754 756 757 759 760 762 763 767 769 771 773 775 777 779 782 783 785 787 789 790 792 793 795 796 798 799 801 803 804 806 807 808 809 810 811 813 814 815 816 817 818 820 821 822 823 824 825 825 826 827 827 828 829 830 830 831 832 833 834 834 835 835
773 775 777 785 792 793 791 788 785 779 774 771 763 755 756 755 755 755 754 752 747 748 747 745 752 755 758 761 761 756 755 754 752 753 755 756 757 757 759 761 763 764 767 770 772 774 776 778 780 783 784 786 787 789 791 792 794 795 797 798 800 802 803 805 806 808 809 810 811 812 813 815 816 817 818 819 820 822 823 824 825 826 826 827 828 828 829 830 831 832 833 833 834 834 835 835 836
776 779 779 787 792 790 789 788 783 779 774 770 761 751 752 752 752 753 751 750 746 748 748 745 749 752 759 763 759 757 755 756 754 753 755 757 758 759 760 762 765 767 768 771 774 775 777 780 782 784 785 786 788 789 791 793 795 796 798 799 801 803 805 806 807 809 810 811 812 813 815 816 817 818 819 820 821 822 823 824 825 826 827 828 829 830 830 831 832 833 834 834 835 835 835 836 836
776 781 780 786 792 789 788 789 783 781 774 765 759 751 750 750 750 751 750 747 745 750 747 743 743 747 760 762 757 757 756 756 755 754 756 757 759 761 762 763 767 770 771 773 776 777 779 781 783 785 786 787 789 791 792 794 796 797 799 801 802 804 806 807 808 810 811 812 813 815 816 817 818 818 819 820 822 823 824 825 826 827 828 829 830 831 831 832 833 834 835 835 835 835 836 836 837
774 778 778 785 793 789 786 785 780 782 772 760 758 752 750 749 748 748 749 750 749 748 744 739 741 747 758 761 760 758 755 755 755 756 756 758 761 763 765 766 768 772 774 775 777 779 780 782 783 785 787 788 790 792 794 795 797 798 800 802 803 805 806 808 809 810 812 813 814 815 817 817 818 819 820 821 822 824 825 826 826 827 828 829 830 831 832 833 834 834 835 835 835 836 836 837 837
772 776 778 783 789 787 784 782 779 780 770 757 758 754 751 748 745 746 747 752 751 744 740 740 739 746 755 758 758 754 752 754 755 756 758 760 763 766 768 769 771 773 776 777 779 781 781 783 784 786 787 789 791 792 794 796 798 799 801 803 804 805 807 808 810 811 812 814 815 816 817 818 819 821 821 822 823 824 825 826 827 828 829 830 831 832 832 833 834 835 835 836 836 836 836 837 837
772 774 780 784 785 785 784 781 780 780 767 757 757 755 753 748 744 748 746 746 749 743 742 744 741 744 749 750 748 746 749 753 754 757 759 762 765 768 770 771 773 775 778 779 780 782 782 783 784 786 788 789 791 793 795 797 798 800 802 803 804 806 807 809 810 812 813 815 816 817 818 819 821 822 822 823 824 825 826 827 828 829 830 830 831 832 833 833 834 835 836 836 836 836 837 837 838
771 774 782 787 784 784 782 778 777 773 763 757 756 755 757 752 746 746 743 743 749 748 746 746 742 742 744 743 742 743 748 751 754 757 760 764 767 770 772 773 775 776 778 779 780 781 782 783 784 786 788 790 791 793 795 797 799 801 802 804 805 807 808 810 811 813 814 815 817 818 819 820 821 823 823 824 825 826 827 828 828 829 830 831 832 833 833 834 834 835 836 837 837 837 837 837 838
772 779 785 784 780 779 775 771 769 766 762 758 756 756 757 755 750 744 743 748 751 751 749 748 745 742 742 741 742 745 748 750 753 757 760 764 767 771 773 774 775 776 777 778 779 781 782 784 785 787 788 790 792 794 796 798 800 801 803 805 806 808 809 811 812 813 815 816 817 818 820 821 822 823 824 825 825 826 827 828 829 829 830 831 832 833 834 834 835 836 836 837 837 837 838 838 838
774 782 786 778 774 773 768 766 764 764 762 759 756 756 756 755 752 746 747 752 753 755 754 751 751 747 744 743 744 747 749 751 753 756 760 764 768 771 774 774 774 774 776 777 780 781 782 784 785 787 789 791 793 795 797 799 801 803 805 806 808 809 810 811 812 814 815 816 818 819 821 822 823 824 825 826 826 827 828 829 829 830 830 831 832 833 834 835 835 836 837 837 838 838 838 838 839
773 780 782 773 769 768 765 764 763 761 760 760 758 756 756 753 751 749 751 753 754 757 756 753 753 750 747 745 745 747 749 751 754 757 761 764 767 770 772 772 771 772 775 777 780 781 782 783 785 787 789 791 793 795 797 799 801 803 805 807 808 810 811 812 813 814 815 817 818 819 821 822 823 824 826 827 827 828 829 829 830 830 831 831 833 834 835 836 836 836 837 837 838 838 838 839 839
774 775 774 768 767 767 763 761 761 759 759 760 759 757 755 750 749 750 752 756 755 753 750 748 748 746 746 746 745 747 749 751 754 757 760 762 766 769 770 769 769 771 774 776 778 780 782 784 785 787 789 791 793 795 797 799 801 804 805 807 808 810 811 813 814 815 816 817 818 820 821 822 823 825 826 827 828 829 829 830 831 831 831 832 834 835 836 836 836 837 837 837 838 838 839 839 839
773 770 765 765 766 766 761 759 759 757 758 759 760 759 754 749 749 749 751 756 752 746 743 742 743 741 742 744 746 748 750 753 755 757 759 761 763 765 768 770 771 771 773 776 778 780 782 785 786 787 789 791 793 795 797 799 802 804 805 807 809 810 812 813 815 816 816 817 819 820 821 822 824 825 826 828 829 830 830 831 831 832 832 833 835 836 837 837 837 837 837 838 838 839 839 840 840
773 768 762 763 765 765 761 757 756 756 759 760 759 757 753 753 752 747 748 749 744 740 738 738 741 741 741 743 747 752 757 760 761 760 759 760 761 763 768 772 773 773 773 776 779 782 783 786 788 788 790 791 793 795 797 799 802 804 805 807 809 810 812 814 815 816 817 818 819 821 822 823 824 825 827 828 829 830 831 831 832 833 834 835 835 836 837 837 837 838 838 838 839 839 840 840 840
771 768 762 762 762 762 759 756 755 756 759 757 756 755 754 755 753 747 745 742 739 738 736 736 740 742 745 749 755 760 764 766 766 762 760 761 762 764 770 773 774 774 775 778 781 783 785 787 789 790 790 791 792 794 797 799 801 803 805 807 808 810 812 814 815 817 817 818 820 821 822 823 824 826 827 828 829 830 831 832 833 834 834 835 836 837 837 838 838 838 839 839 839 840 840 840 841
769 767 762 760 760 758 756 756 755 755 755 754 755 754 751 753 752 747 742 740 739 738 738 738 740 745 750 755 759 761 763 765 767 765 763 766 769 772 774 775 778 777 775 777 781 783 785 787 789 790 790 791 792 794 796 798 800 803 805 807 808 810 812 813 815 816 817 819 820 821 822 823 824 826 827 828 829 830 831 832 833 834 835 836 837 837 838 838 838 838 839 839 839 840 840 841 841
765 762 762 759 758 757 756 756 753 752 752 752 754 751 749 749 750 747 741 740 740 739 740 741 743 748 754 757 759 761 762 764 768 771 768 766 771 778 780 780 782 782 779 777 780 783 785 788 789 790 791 792 793 795 797 798 800 802 804 806 808 810 812 813 814 816 817 819 820 821 822 823 824 826 827 828 829 830 831 833 834 835 836 837 837 838 838 838 839 839 839 839 840 840 841 841 841
760 760 760 758 758 757 756 755 752 752 751 750 752 751 749 748 750 748 741 740 741 740 744 746 747 752 755 757 759 761 764 764 765 770 770 765 764 767 773 779 781 782 783 779 778 781 784 786 788 790 791 792 793 795 796 797 799 802 804 807 808 810 811 812 814 816 817 819 820 821 822 823 825 826 827 828 829 831 832 833 834 835 836 837 838 838 839 839 839 839 839 840 840 840 841 841 841
759 759 759 757 757 757 756 754 751 752 748 746 749 749 748 750 750 745 741 741 742 742 746 749 751 754 756 757 759 761 764 765 763 765 767 764 758 755 757 764 773 778 780 778 775 777 780 783 786 788 790 792 793 795 795 797 799 801 804 807 808 809 812 813 814 816 817 818 820 821 822 823 824 826 827 828 829 831 832 833 834 836 837 837 838 839 839 839 839 840 840 840 840 840 841 842 842
758 759 762 759 756 756 754 752 750 751 748 742 747 752 750 750 747 742 742 743 744 746 749 751 752 755 757 757 759 761 763 764 763 763 761 757 756 756 754 754 761 769 772 770 770 771 775 779 784 787 788 791 793 794 795 797 799 801 803 806 807 809 812 813 815 816 817 818 819 821 822 823 824 826 827 828 829 831 832 833 835 836 837 838 838 839 839 839 840 840 840 840 840 840 841 842 843
759 760 764 763 762 760 753 752 752 751 748 741 747 761 756 744 743 743 743 742 744 749 751 752 753 756 758 758 759 761 762 763 761 761 758 755 755 756 756 754 755 759 761 764 769 774 777 780 784 787 789 791 792 794 795 797 798 800 803 805 807 809 812 813 815 816 817 818 819 821 822 823 824 826 827 828 829 831 832 833 835 836 837 838 839 839 839 839 839 840 840 840 840 840 841 842 843
762 763 765 771 774 765 752 752 753 750 747 741 747 764 758 741 743 746 744 742 744 750 752 752 754 757 758 758 760 761 761 761 759 758 757 756 757 757 759 758 758 760 761 766 773 778 781 783 785 787 789 792 793 794 795 796 798 799 802 804 806 809 811 813 815 816 817 818 819 820 822 823 824 826 827 828 829 831 832 834 834 836 837 838 839 839 839 839 840 840 840 840 840 840 841 842 843
768 769 772 777 778 770 756 750 753 751 747 744 749 763 757 743 746 747 744 744 745 749 752 752 755 757 758 758 760 762 762 760 759 758 757 758 760 762 763 763 764 766 767 770 774 778 782 784 786 788 790 792 794 795 796 797 797 799 801 804 806 808 810 813 814 815 817 818 819 821 822 823 824 826 827 828 830 831 832 833 834 835 837 838 839 839 839 840 840 840 840 840 840 840 841 842 843
775 776 776 777 776 774 764 751 751 752 749 747 751 760 756 745 747 749 746 746 747 751 752 752 756 756 757 757 758 761 761 761 760 759 759 760 762 764 766 767 767 769 771 773 775 779 782 784 786 788 790 792 794 796 796 797 798 799 801 803 805 808 810 812 813 815 816 817 819 821 822 823 825 826 827 828 830 831 832 833 834 835 837 838 838 839 839 840 840 840 840 840 841 841 842 842 843
779 778 776 777 775 775 771 758 751 752 752 752 753 757 754 745 747 751 747 746 748 752 753 753 756 756 756 756 757 759 760 760 759 759 760 761 762 765 767 768 770 772 774 775 777 780 782 784 786 788 790 792 794 796 796 797 797 798 800 803 805 807 810 811 813 815 816 817 819 821 822 823 825 826 827 828 829 831 832 833 834 835 836 837 838 838 839 839 840 840 840 840 841 842 842 843 843
777 777 775 777 776 775 775 766 755 752 754 756 758 759 753 746 747 751 749 747 749 752 753 754 755 756 755 756 757 758 758 758 758 759 760 761 762 765 767 769 772 774 775 776 778 780 782 784 786 788 790 791 794 795 796 797 797 799 800 803 805 807 809 811 813 815 816 817 819 820 822 823 825 826 826 828 829 830 831 832 833 835 836 837 838 838 839 839 840 840 841 841 841 842 843 843 844
772 774 775 776 775 773 772 767 758 756 758 759 758 758 754 748 746 749 748 746 749 753 753 754 756 756 755 756 756 757 757 756 757 759 761 762 763 764 766 769 772 774 776 777 778 779 781 783 785 787 789 791 793 794 796 797 797 799 801 802 805 807 809 811 813 815 816 817 819 820 822 823 825 825 826 827 828 830 831 832 834 835 836 837 837 838 838 839 840 841 841 841 842 843 844 844 845
770 773 775 775 775 772 769 766 758 756 762 759 753 755 755 749 747 746 746 747 751 754 754 754 755 755 754 754 755 756 756 755 757 760 761 762 763 764 766 769 772 774 775 777 777 779 780 782 784 786 788 790 791 793 795 796 797 799 801 803 804 807 809 811 813 814 816 817 819 820 821 823 824 825 826 827 828 829 831 832 834 835 836 837 838 838 838 839 840 840 841 842 842 843 844 845 846
771 773 774 775 777 773 767 764 758 755 763 759 753 757 753 748 749 746 744 747 750 750 752 753 754 753 752 752 754 755 755 756 758 760 761 762 763 765 767 769 772 773 774 776 777 778 780 781 783 785 787 789 791 793 794 796 798 799 800 803 804 807 809 810 813 814 816 817 818 820 821 823 824 825 826 827 828 829 831 832 833 835 835 836 837 838 838 838 839 840 841 842 842 843 844 845 846
772 774 776 776 775 772 766 762 758 757 762 757 754 759 754 749 752 749 747 747 744 743 744 746 749 750 751 750 752 754 755 756 758 760 761 762 764 765 767 769 771 773 775 776 776 778 779 781 783 785 787 789 790 792 794 796 798 799 801 803 805 807 809 811 813 814 816 817 818 820 821 822 824 825 826 827 828 829 831 832 833 834 835 836 837 837 838 838 839 840 841 841 842 843 844 845 846
774 774 776 776 774 774 769 763 759 757 759 756 755 759 755 753 753 748 750 750 745 744 742 742 744 745 745 746 748 751 753 756 758 760 762 762 765 766 767 769 771 773 775 775 776 777 779 780 782 785 786 788 790 792 794 795 797 800 802 804 806 807 809 811 812 814 816 817 818 819 821 822 823 824 826 827 828 830 831 832 833 834 835 836 836 837 837 837 838 839 841 841 841 842 844 845 846
773 772 773 773 771 771 769 765 762 757 757 757 757 758 754 757 758 752 752 751 747 746 745 745 745 744 744 746 748 751 752 755 758 760 761 763 765 766 768 770 770 773 775 775 776 777 778 780 782 785 787 788 790 791 793 795 797 800 802 804 806 808 809 810 812 813 815 816 818 819 820 821 823 824 826 827 829 830 831 832 833 834 834 835 836 837 837 837 838 839 840 841 841 842 843 844 845
772 767 766 767 764 764 765 767 768 764 761 757 757 761 760 762 766 761 757 754 751 749 748 746 746 745 746 747 749 752 754 756 758 760 761 764 766 767 769 770 770 772 775 776 777 779 779 781 782 785 787 788 790 791 793 795 797 799 801 803 805 806 808 810 811 812 814 816 817 818 820 821 822 824 825 827 829 830 831 832 833 833 834 835 836 837 837 837 838 838 839 840 841 841 842 843 844
773 762 756 759 761 763 765 767 769 767 763 759 758 764 766 763 766 766 761 758 756 754 750 747 746 746 745 746 749 753 756 758 760 761 762 764 766 767 768 770 771 773 775 776 778 780 780 781 783 785 787 788 790 792 794 795 797 799 801 802 803 805 807 809 811 812 814 816 817 818 819 821 822 824 825 827 829 830 831 832 833 834 835 835 836 837 837 837 838 838 839 839 841 841 842 842 843
767 754 750 756 761 764 765 767 770 765 761 761 760 763 765 761 763 766 761 759 758 756 753 748 747 746 745 748 751 754 758 759 760 762 763 765 766 767 768 770 771 773 776 777 779 780 781 782 784 785 787 789 791 793 795 796 798 799 801 802 804 805 807 809 811 813 814 816 817 818 820 821 823 824 826 827 829 830 832 833 834 835 835 836 836 837 837 837 838 838 838 839 840 841 841 842 842
754 747 750 753 755 759 761 765 768 766 765 763 760 763 766 762 762 765 761 759 757 753 751 750 747 747 748 750 753 755 757 759 761 762 763 765 765 766 768 770 772 775 777 779 780 781 782 784 786 787 788 790 792 794 795 797 799 800 801 803 805 807 808 810 811 813 815 816 817 818 820 821 823 825 826 828 829 831 832 834 835 835 836 836 836 837 837 837 837 838 838 838 838 839 840 841 842
746 747 752 752 754 759 761 765 763 766 771 764 756 760 764 761 761 766 764 760 757 751 748 748 747 748 749 751 753 754 757 758 759 761 762 763 764 766 768 770 772 776 778 780 782 783 784 785 787 788 790 791 793 795 796 798 800 801 802 803 805 807 808 810 812 814 815 816 817 819 821 822 823 825 827 828 830 831 833 834 835 835 836 836 836 837 837 837 837 837 837 837 838 839 840 841 841
744 748 752 754 759 758 761 766 763 769 772 759 755 760 761 760 759 762 763 758 756 752 749 748 746 748 750 750 752 753 756 757 758 760 761 762 763 765 768 770 773 777 779 780 782 783 784 786 788 789 791 792 794 795 797 798 800 801 802 804 805 807 808 810 812 814 815 817 818 820 821 822 824 825 827 828 830 831 833 834 835 836 836 836 836 836 837 837 837 837 837 837 838 838 839 841 841
745 749 751 756 763 762 765 768 766 775 773 756 760 767 761 760 757 758 761 757 755 753 750 750 749 750 752 752 752 754 756 758 759 760 761 762 762 765 768 770 773 777 779 780 782 783 785 786 788 789 791 792 794 795 797 798 800 801 803 804 805 807 808 810 812 814 816 817 819 820 821 823 824 826 827 828 830 831 832 833 834 835 836 836 836 836 837 837 837 837 837 838 838 839 840 841 841
750 753 756 762 770 772 775 776 774 778 768 754 763 767 759 759 760 760 761 756 755 753 749 749 750 752 754 755 756 757 759 761 763 764 765 765 764 765 769 770 773 776 778 781 782 784 785 786 788 789 790 792 793 795 797 798 800 802 803 804 806 807 809 810 812 814 816 817 819 820 821 823 824 825 827 828 829 830 831 833 834 835 835 836 836 836 837 837 838 838 838 839 839 840 840 841 842
753 752 755 763 773 779 782 784 785 778 763 757 764 761 756 759 762 763 762 758 755 752 747 746 747 751 755 757 758 759 761 764 766 767 768 769 767 767 771 772 774 776 779 782 783 785 786 786 787 789 790 792 793 795 796 798 800 801 803 804 805 807 808 810 812 814 816 817 819 820 822 823 824 826 827 827 828 830 831 832 833 834 835 835 836 837 838 838 839 839 839 840 840 841 841 842 843
750 747 748 754 760 768 773 773 772 769 761 760 762 760 758 760 762 764 761 758 754 750 747 745 745 748 751 755 759 760 761 763 765 766 768 770 770 770 772 775 776 777 780 783 784 786 786 787 788 789 790 791 793 795 796 798 799 801 803 804 805 807 808 810 812 814 815 817 819 821 823 824 825 826 827 827 828 829 831 832 833 834 835 836 837 837 838 839 839 840 840 840 841 841 842 843 843
749 746 746 749 744 746 762 769 767 767 765 762 763 765 766 764 762 762 759 757 755 752 750 748 749 750 751 754 759 761 763 764 765 766 768 770 771 772 773 775 777 778 781 784 785 786 787 787 787 788 789 792 793 795 796 798 799 801 803 805 806 808 809 811 813 814 816 818 820 821 823 824 825 826 827 828 829 830 831 832 833 835 835 836 838 838 839 840 840 841 841 841 842 842 843 843 844
746 747 742 743 739 737 754 771 776 775 768 768 773 770 769 768 762 760 759 757 758 757 755 755 754 754 755 756 758 761 764 764 765 767 769 770 771 773 773 774 777 778 780 783 785 786 787 787 788 788 789 792 794 796 797 799 800 802 804 806 807 809 810 812 813 815 817 818 820 822 823 824 825 827 827 828 829 830 832 833 834 835 836 837 838 839 839 840 841 842 842 842 843 843 844 844 844
738 743 735 738 744 742 747 760 772 775 767 770 777 773 770 769 764 764 765 762 762 761 758 758 758 757 759 760 761 763 764 764 765 767 768 769 771 772 772 772 773 775 778 780 783 785 786 787 790 791 791 793 795 797 799 800 802 803 805 806 808 809 811 812 814 815 817 818 820 822 823 824 826 827 828 829 830 831 832 833 834 836 837 838 838 838 839 840 842 843 843 843 844 844 845 845 845
727 730 728 734 745 747 750 757 763 770 772 772 776 778 774 769 768 770 770 768 767 764 761 761 760 760 761 764 766 767 766 766 766 767 768 768 770 771 770 768 768 770 774 777 779 783 785 787 791 793 795 795 797 798 799 801 802 803 805 806 808 810 811 813 814 815 817 818 820 821 823 824 825 827 828 829 830 831 832 834 834 836 837 837 838 838 839 841 842 843 844 845 845 846 846 846 847
726 729 731 734 739 743 748 754 754 760 770 776 775 773 771 770 774 774 770 770 770 766 764 763 762 762 763 764 767 768 768 769 769 768 768 767 769 770 768 768 767 768 772 775 779 783 785 787 790 792 793 793 794 797 798 800 801 803 804 805 807 809 811 812 814 815 817 818 820 821 822 824 825 826 828 828 830 831 832 833 834 835 836 837 838 839 840 841 842 843 844 845 846 847 847 848 848
729 733 736 737 741 743 745 753 758 756 761 773 776 770 768 771 772 770 768 770 770 767 766 766 765 764 764 764 765 766 768 770 770 770 770 770 770 771 771 769 767 767 770 774 779 783 785 787 789 788 788 788 790 793 796 799 801 802 803 805 806 808 810 812 813 815 817 818 820 821 822 823 825 826 827 828 830 831 831 833 834 835 836 837 839 840 841 842 843 844 845 846 846 847 848 849 849
733 730 731 734 738 741 745 755 764 760 757 767 769 762 765 771 769 768 770 769 768 769 768 768 768 766 766 766 765 766 767 770 772 772 773 773 772 774 775 773 771 770 771 775 779 782 784 785 784 784 786 789 789 791 794 797 800 802 803 805 805 807 809 810 812 814 816 817 819 820 822 823 824 826 827 828 829 830 831 832 834 835 836 837 839 841 841 842 843 844 845 846 847 848 849 849 850